GFSSGP_850_rhum_150.txt.gz
RH
18 18 19 20 25 32 29 15 13 14 12 11 17 21 26 25 32 49 33 47 58 61 66 67 61 53 54 45 44 43 42 41 40 42 46 48 53 61 65 60 55 50 52 58 61 66 62 58 57
16 23 20 18 34 34 25 14 14 13 13 13 16 18 20 25 30 30 34 37 59 68 72 68 66 57 55 46 45 46 45 43 42 43 46 47 52 62 68 62 57 58 57 59 59 65 70 71 68
26 26 23 34 38 30 18 12 12 14 12 12 12 16 17 19 17 23 36 28 56 71 76 70 55 57 54 49 49 49 48 46 44 42 43 47 51 62 71 64 56 61 63 60 61 64 72 75 76
22 25 23 29 30 22 16 12 12 15 13 15 16 22 11 13 14 21 46 37 42 73 79 80 79 62 55 54 52 52 50 49 47 43 42 45 53 63 69 63 58 62 66 65 65 70 72 75 76
23 23 34 34 30 23 17 14 14 17 17 17 13 14 9 10 16 41 40 33 44 72 86 85 87 85 75 60 57 54 51 49 45 40 41 44 50 62 69 61 62 63 65 68 68 73 74 75 78
24 24 32 32 23 22 19 16 15 14 14 15 11 10 9 9 13 49 37 36 32 41 56 69 87 90 77 72 67 63 57 49 40 38 41 45 52 59 66 60 61 64 65 66 70 72 74 75 80
25 34 34 28 25 22 18 13 14 11 10 10 14 14 8 8 8 12 17 74 69 62 80 86 87 93 80 77 68 67 62 56 44 36 36 46 52 57 61 61 64 62 64 64 65 72 75 75 81
18 29 28 25 24 15 9 7 8 7 8 8 12 17 9 7 7 8 10 12 18 33 37 84 96 88 84 81 68 67 63 56 49 42 41 39 47 54 56 59 63 66 68 66 63 68 73 74 77
14 27 31 23 18 11 6 6 5 6 9 9 9 8 7 7 8 6 8 11 15 16 18 27 76 97 99 100 97 85 67 61 61 52 50 45 40 41 51 60 67 68 70 68 66 68 69 72 77
17 28 22 16 12 8 6 5 5 4 8 10 8 7 7 7 8 11 16 18 18 18 19 19 22 48 74 84 96 100 98 87 76 61 48 48 49 44 42 54 66 73 71 71 70 70 69 70 72
12 22 18 11 6 5 5 6 5 5 10 9 8 7 7 11 16 16 24 29 34 34 26 26 26 26 27 37 58 92 99 100 100 93 69 46 55 59 56 51 59 68 72 73 71 70 69 68 70
12 10 10 9 7 6 7 6 6 6 8 8 6 7 9 17 23 26 27 28 31 36 34 33 30 31 29 29 30 34 55 91 97 100 100 81 47 57 62 62 56 60 69 72 75 71 70 73 70
10 9 9 8 7 6 7 7 8 7 8 6 6 9 19 29 34 34 33 34 36 32 35 33 34 32 31 29 28 27 27 32 44 82 94 100 86 60 60 67 67 59 68 79 77 74 71 75 74
10 8 8 8 7 7 7 8 8 7 6 6 9 24 32 33 34 30 28 35 33 32 30 27 27 26 27 28 29 27 24 21 24 29 69 91 100 88 76 68 78 75 74 74 76 71 72 71 72
12 10 10 8 7 7 7 8 8 6 6 7 33 39 38 36 32 33 38 33 32 31 29 22 22 24 25 24 23 22 20 18 16 18 23 54 87 99 96 80 78 81 78 72 81 67 74 76 75
14 14 14 10 9 8 7 10 8 7 6 8 44 46 42 42 40 40 36 33 31 30 26 25 25 24 25 25 24 22 20 21 20 19 15 21 43 77 98 96 80 75 87 80 85 74 72 79 78
16 20 14 13 9 10 9 10 8 8 6 22 48 50 47 44 42 38 28 20 20 26 27 25 24 24 28 28 28 25 21 20 22 24 24 17 18 43 57 94 97 80 75 89 87 81 74 75 75
20 16 13 14 10 10 10 9 8 7 8 46 52 51 48 40 40 29 20 19 26 30 32 32 32 32 32 34 33 30 30 29 25 27 29 29 20 20 36 54 87 98 81 78 86 88 76 76 74
17 16 16 9 9 10 13 10 9 9 43 55 52 50 49 42 41 30 24 27 32 33 32 32 36 36 37 37 37 37 37 35 38 38 46 43 38 29 42 41 50 81 99 74 82 89 81 79 80
20 20 14 10 8 9 10 10 10 10 45 52 50 51 47 41 36 29 25 27 30 35 37 39 41 50 55 54 53 54 56 54 56 60 60 60 60 50 44 59 52 69 85 90 76 86 89 82 80
14 14 12 12 10 9 9 14 10 53 51 50 54 51 44 39 37 39 39 42 40 40 39 40 49 59 61 66 67 68 68 67 76 78 71 65 68 63 60 62 68 83 76 95 80 84 87 82 80
19 13 13 12 14 17 12 19 16 56 55 52 56 51 49 46 47 45 41 37 42 42 40 42 56 64 70 75 80 82 90 97 97 98 98 89 74 66 64 61 69 68 92 68 99 78 89 84 82
17 17 17 16 18 17 14 18 23 57 62 60 58 54 53 50 50 50 53 57 52 43 39 39 58 71 74 81 86 88 95 99 99 95 100 96 89 68 60 61 60 69 92 77 67 93 91 85 92
17 15 18 20 21 27 20 18 26 30 57 58 57 56 52 51 54 54 58 60 54 44 36 36 50 74 74 83 88 90 100 100 99 100 99 100 89 72 64 58 58 65 64 92 82 94 96 84 84
17 21 29 33 32 28 23 20 14 52 51 55 61 57 55 58 58 58 62 64 58 40 35 38 50 73 75 78 87 94 98 100 99 98 98 96 99 100 79 71 60 61 65 56 73 86 100 100 82
20 22 48 39 50 44 28 34 50 51 52 54 54 56 58 60 62 65 67 63 56 47 42 48 55 74 75 75 89 94 94 100 99 99 98 97 98 100 98 83 69 56 60 54 52 64 49 89 98
26 28 27 42 44 52 38 58 53 52 56 59 59 59 61 63 65 67 64 60 58 51 48 57 66 72 69 79 86 92 92 99 98 98 100 99 100 100 73 76 81 60 60 57 70 74 56 73 98
26 27 42 52 48 47 34 52 59 64 64 62 65 62 62 61 62 65 62 63 61 59 56 58 64 67 75 82 83 89 96 99 100 98 98 98 100 100 66 68 78 68 51 62 64 75 64 60 90
27 40 38 45 53 57 52 42 51 59 61 68 65 60 61 59 62 65 65 62 61 61 62 58 64 71 75 79 79 85 96 99 100 99 99 100 99 100 92 70 74 52 44 38 32 51 64 53 88
21 28 41 71 46 55 59 57 58 66 65 65 64 60 62 60 65 66 65 63 62 65 64 60 69 77 79 78 78 88 94 100 99 100 100 100 100 99 98 97 72 72 58 37 35 55 64 68 77

GFSSGP_850_rhum_153.txt.gz
RH
19 19 23 25 23 30 26 16 14 14 13 20 25 26 29 33 36 50 34 42 61 68 72 69 63 56 55 53 49 45 43 42 41 42 43 48 55 59 62 60 53 51 53 63 60 57 52 50 57
19 24 24 20 32 28 22 17 15 15 16 17 18 20 22 22 32 33 30 51 65 75 76 66 70 62 59 56 53 49 47 46 45 46 47 50 56 61 66 62 55 55 53 63 68 65 59 58 57
24 26 24 38 40 30 22 13 13 15 17 14 16 13 15 19 17 40 43 54 78 80 79 72 63 66 63 60 57 53 51 49 47 47 48 51 56 64 70 67 58 54 55 58 61 68 68 67 69
23 25 24 35 29 23 19 13 13 16 16 16 14 16 11 19 18 51 43 58 77 85 88 92 91 82 66 63 60 56 54 51 47 46 49 54 61 68 74 69 60 55 56 60 60 65 73 76 78
22 22 38 37 30 25 22 16 15 19 19 16 11 11 9 43 57 41 48 62 71 79 82 83 87 89 82 74 65 62 60 58 54 48 47 50 56 67 78 71 63 59 58 61 61 60 70 78 80
23 25 37 34 28 22 20 16 13 14 12 11 10 10 10 53 51 52 72 80 91 95 97 98 94 94 85 86 75 71 68 65 61 56 52 51 54 61 73 71 63 62 62 64 62 60 66 74 82
28 36 38 30 28 20 15 13 12 10 11 11 11 11 10 16 33 56 55 45 65 78 81 98 96 96 91 88 85 80 76 70 65 59 57 56 61 68 69 68 65 64 63 65 64 63 66 68 79
18 33 28 27 26 12 8 8 8 7 8 11 11 13 9 14 17 14 14 29 35 35 54 90 95 90 93 91 93 97 93 88 79 64 54 53 59 67 75 70 64 66 64 67 66 66 67 67 74
16 30 33 24 19 11 6 6 8 9 9 9 8 8 10 16 16 13 16 17 17 20 27 46 70 82 85 86 97 97 99 100 98 95 88 65 52 62 71 74 69 68 66 67 68 67 68 68 73
18 31 26 20 13 7 6 6 6 8 10 9 8 10 13 16 12 12 14 19 26 28 28 28 28 31 37 43 54 75 88 94 97 98 97 95 78 60 62 75 79 74 72 69 69 69 70 69 70
15 21 20 12 8 5 5 6 6 7 10 10 8 14 18 15 18 23 29 32 35 34 30 27 28 28 27 26 27 28 32 45 78 90 94 97 95 83 69 63 75 82 80 75 70 69 70 68 69
13 11 14 12 7 5 6 6 6 6 7 7 9 17 21 21 25 30 32 35 33 32 30 29 26 26 26 26 24 25 25 25 27 31 62 80 89 97 94 70 65 80 85 80 75 72 69 71 71
12 9 9 10 8 6 6 7 7 8 8 10 13 22 22 23 28 34 34 32 30 26 27 26 25 24 20 17 16 16 15 16 18 20 23 28 60 87 99 99 83 65 76 88 84 77 76 74 74
9 11 8 8 8 7 8 8 8 7 11 17 22 29 32 33 35 35 32 29 27 27 24 21 18 17 18 19 20 20 20 19 18 16 15 16 21 46 81 96 99 95 73 71 91 88 79 76 76
12 14 13 10 8 8 8 8 10 7 15 33 42 44 43 40 39 35 33 27 23 18 15 14 17 20 20 20 20 20 19 18 17 16 16 17 16 19 28 70 93 98 99 84 76 90 84 86 85
15 15 17 11 9 7 7 11 8 8 19 52 50 49 46 45 40 34 26 21 20 19 15 18 19 19 19 19 20 19 19 18 18 18 18 19 19 19 21 25 60 92 99 99 84 77 83 84 85
20 20 16 14 10 10 9 10 8 12 27 53 54 52 48 45 38 32 32 30 24 18 14 14 16 17 19 20 21 22 21 19 20 24 26 25 26 26 23 24 26 58 95 98 97 81 77 84 78
23 19 15 15 11 11 11 10 8 13 33 54 54 54 53 47 44 41 35 31 24 18 17 17 18 21 23 25 25 26 26 30 34 35 35 38 35 39 36 31 29 36 60 95 99 92 78 82 80
18 19 20 16 10 11 13 11 9 35 56 61 57 56 55 50 50 44 37 29 23 19 18 21 23 23 31 36 34 30 29 30 38 46 52 58 57 55 55 49 41 33 50 79 93 98 88 74 84
21 23 24 18 10 11 12 12 13 43 61 59 55 58 55 52 48 40 35 29 24 25 23 23 23 27 42 48 51 54 54 50 57 62 62 62 59 56 59 61 56 48 40 66 100 90 99 83 76
25 23 18 12 11 10 10 13 11 58 56 55 56 55 54 51 50 49 46 40 32 27 26 26 26 30 42 51 54 51 51 55 61 63 65 73 79 79 74 61 63 59 54 49 92 99 97 98 78
30 19 15 13 15 18 13 22 15 61 62 59 59 55 54 53 52 50 49 42 38 33 30 28 26 34 46 58 61 59 67 74 75 79 72 81 91 96 99 81 62 62 62 55 58 92 92 99 96
25 17 17 16 19 17 16 18 18 62 69 67 63 58 57 58 56 56 55 48 45 36 30 27 29 35 47 60 61 62 65 75 82 91 82 91 98 99 98 93 88 72 77 70 58 67 99 92 99
19 16 24 26 22 25 20 17 25 78 63 62 61 59 59 60 58 58 53 46 43 40 34 32 36 37 44 52 55 57 64 80 88 88 90 91 91 94 98 95 97 94 96 91 68 70 84 96 98
16 20 31 28 28 30 21 21 17 53 53 54 62 60 60 61 59 60 55 52 48 46 40 40 37 38 38 38 47 56 67 82 91 93 90 89 89 88 95 100 98 100 99 99 100 73 78 95 87
22 24 48 43 42 36 29 30 32 58 59 59 56 59 61 62 63 63 60 56 53 52 50 42 38 34 33 38 45 61 71 75 89 93 92 95 96 100 95 99 100 98 95 100 100 93 73 91 99
24 26 26 44 45 52 38 58 57 59 65 64 64 61 64 65 66 65 62 58 56 59 55 48 39 36 37 43 54 65 67 71 84 91 92 95 90 90 93 98 98 100 100 100 100 98 86 64 68
24 26 37 49 40 38 32 50 58 71 70 66 70 65 66 64 68 66 62 61 63 59 57 50 43 40 44 51 61 66 67 75 86 97 97 97 96 98 94 97 100 100 100 100 100 97 74 66 54
31 45 39 43 50 52 54 41 52 58 61 69 68 63 64 64 67 66 64 63 62 62 59 54 46 42 43 52 57 62 70 80 86 97 99 99 98 99 100 99 100 100 100 99 96 78 71 62 72
21 35 46 68 51 58 66 39 63 57 63 64 65 65 64 65 67 66 64 62 65 64 58 55 53 48 52 56 59 67 76 79 84 90 99 100 98 99 100 100 99 100 99 74 75 76 52 44 61

GFSSGP_850_rhum_156.txt.gz
RH
19 19 25 24 22 26 26 18 15 15 27 29 25 27 35 38 36 47 42 62 78 77 74 70 66 65 64 58 54 52 52 49 48 49 49 54 62 65 66 62 54 53 49 51 53 55 58 64 67
21 26 24 20 28 25 22 18 17 16 23 19 19 23 22 22 36 44 49 75 83 80 74 67 72 68 68 63 57 55 57 56 53 51 52 56 63 69 70 68 60 56 52 55 56 54 57 57 57
24 25 23 37 39 28 25 15 14 18 21 17 15 13 15 18 37 58 86 92 90 89 92 85 74 70 68 66 62 60 60 59 56 56 57 58 64 70 74 73 65 58 56 58 58 55 56 61 67
22 24 24 34 28 24 20 16 14 20 18 14 13 16 16 28 54 87 99 93 86 86 97 100 100 95 81 74 69 66 64 62 60 61 61 62 64 71 76 76 69 61 56 60 60 59 61 66 72
22 22 38 37 31 27 24 20 15 21 18 14 12 12 20 70 80 77 90 88 85 96 98 98 97 92 95 88 83 79 75 70 66 60 59 63 68 72 80 80 71 65 62 62 63 60 62 67 76
23 25 37 35 28 25 21 15 14 13 12 11 10 10 23 64 63 75 70 66 87 90 98 97 97 95 92 92 87 84 84 82 79 74 64 56 59 72 81 84 76 68 63 63 65 63 64 68 77
29 38 38 32 30 18 14 11 13 14 12 13 10 12 28 53 72 83 59 64 76 85 87 90 91 90 86 84 86 86 87 85 81 76 74 75 71 69 78 84 80 73 66 63 65 65 64 68 76
20 35 31 30 28 13 9 8 8 8 9 12 10 13 17 32 34 34 39 38 39 62 83 85 83 84 73 75 86 91 98 90 83 84 80 73 72 76 78 82 83 79 74 68 66 66 63 67 72
17 33 35 25 20 11 6 6 9 10 10 11 10 11 22 28 22 17 15 19 22 25 32 40 44 50 53 65 66 65 78 86 91 94 98 97 81 71 72 81 82 82 81 78 74 70 66 67 70
19 32 28 22 16 9 6 6 6 9 10 14 14 16 22 26 22 14 17 23 24 24 24 24 25 24 24 24 25 26 27 31 41 67 84 90 94 92 73 66 75 80 80 82 82 78 73 68 67
19 18 20 15 11 7 6 6 6 10 10 10 23 21 23 24 19 18 28 31 31 30 27 24 23 22 21 20 19 18 18 18 21 24 27 41 68 82 91 89 64 72 78 78 81 84 78 72 69
12 12 13 13 11 6 7 6 6 8 9 9 14 22 24 22 23 30 33 32 30 28 27 25 21 20 15 12 11 12 13 13 14 15 16 18 22 31 66 87 99 74 69 76 75 77 83 80 74
11 10 9 10 10 6 6 7 6 14 12 11 21 28 27 26 30 34 33 31 29 26 23 20 15 8 9 11 13 14 15 16 16 16 16 16 16 16 21 52 78 94 95 75 76 74 75 79 78
11 13 11 9 9 8 8 8 8 27 17 24 30 32 35 36 37 36 33 29 25 21 18 13 9 10 11 11 13 15 16 16 16 16 16 16 16 17 17 18 37 70 88 99 93 83 73 73 72
13 15 15 12 9 10 8 9 11 20 27 37 40 43 42 40 40 36 32 26 21 18 15 10 9 8 9 10 12 14 16 16 16 15 16 18 19 18 19 20 20 27 63 80 93 99 92 80 76
14 16 18 13 10 9 9 13 10 21 28 51 49 49 46 46 41 36 31 26 22 20 12 12 13 13 12 10 10 13 16 18 18 18 19 23 25 26 24 23 23 23 25 58 73 93 97 95 80
22 17 18 15 11 10 9 11 19 38 34 57 53 51 50 48 46 42 35 28 22 17 15 16 17 15 12 11 12 14 18 22 26 28 29 31 34 39 39 32 30 28 26 27 85 91 89 100 91
21 20 18 17 11 12 12 12 32 51 50 57 54 54 53 50 49 46 38 30 24 20 19 20 18 14 12 11 14 17 20 28 36 40 44 53 52 53 50 48 46 44 40 33 39 98 97 88 97
20 19 22 20 16 12 15 15 16 48 59 62 59 58 56 52 54 50 40 32 26 21 19 18 17 14 13 13 17 19 27 34 42 45 47 53 57 61 59 48 47 46 50 48 41 61 99 99 90
21 23 25 21 18 14 15 15 29 64 66 59 58 59 56 57 58 50 40 34 30 28 25 21 17 16 19 22 26 35 40 40 46 52 56 54 60 64 68 64 59 55 51 56 54 49 91 99 99
26 26 25 22 14 11 11 14 36 57 63 61 60 57 57 52 54 50 46 38 34 28 25 22 23 22 22 24 27 32 32 34 40 46 55 62 67 72 77 74 73 80 64 59 66 58 66 95 100
30 26 23 17 14 20 13 22 15 65 70 64 65 62 58 59 57 54 48 41 38 32 29 27 25 23 23 25 26 34 42 46 48 52 61 69 69 69 74 79 81 93 97 90 72 66 62 82 98
28 24 24 18 17 17 17 19 18 70 76 72 69 62 63 60 56 52 47 42 38 32 30 29 29 28 26 25 30 35 40 48 50 54 55 65 68 72 82 84 86 98 100 100 100 74 73 64 84
22 20 23 26 23 28 23 19 23 73 63 66 67 64 64 62 59 56 52 47 42 39 37 34 29 27 27 27 29 32 40 50 57 55 56 57 73 83 83 87 90 99 99 100 100 99 94 90 70
16 21 32 31 30 32 22 22 19 40 52 60 63 65 64 64 62 58 51 45 42 39 38 33 32 30 30 31 32 36 46 49 53 57 58 68 88 89 89 92 92 99 99 99 97 99 99 91 99
22 25 53 47 39 33 27 28 23 63 64 52 64 62 66 65 63 59 53 48 45 43 39 39 39 37 36 35 35 40 47 47 52 58 63 85 95 96 95 95 97 95 100 99 98 98 100 94 84
27 30 26 43 44 53 40 35 58 69 70 67 68 67 68 66 65 60 54 49 48 46 46 47 46 45 42 40 40 41 45 48 58 57 67 84 88 94 95 99 96 93 96 93 98 99 98 99 98
26 25 36 48 40 40 34 36 39 77 75 71 75 72 69 66 66 61 55 52 52 52 51 51 52 50 47 45 46 46 45 52 61 64 72 82 88 90 91 96 93 89 95 89 99 99 98 98 100
34 42 34 35 49 39 41 37 52 62 64 70 71 67 66 64 65 60 57 57 58 57 54 51 50 50 50 49 50 49 49 53 63 66 72 81 84 92 96 97 95 93 95 97 98 100 99 100 99
23 34 37 48 46 53 44 36 67 59 59 64 66 64 64 63 64 63 61 61 59 55 53 51 52 53 52 51 51 52 53 54 67 69 72 80 84 89 98 98 98 95 98 99 100 98 99 100 100

GFSSGP_850_rhum_159.txt.gz
RH
18 20 22 20 16 17 19 16 14 15 27 32 26 27 32 37 35 46 79 86 82 78 77 74 71 70 67 62 61 61 58 59 61 60 60 63 66 68 68 64 57 55 50 52 56 57 61 66 71
20 22 21 20 16 15 16 16 16 17 29 20 19 20 21 27 44 80 93 91 83 79 77 79 77 76 73 68 65 62 60 58 59 60 60 60 66 69 71 70 65 59 55 54 58 60 60 59 59
21 23 22 23 22 16 15 14 15 21 23 18 15 16 18 22 61 93 98 90 94 91 88 80 79 78 77 74 72 69 68 65 64 62 61 62 66 70 73 75 71 65 59 58 59 59 61 64 66
21 23 23 23 23 22 20 18 18 18 16 14 15 18 41 76 92 93 90 82 86 86 99 99 98 88 79 76 74 72 71 72 74 72 68 63 61 65 73 77 76 70 64 60 62 61 61 66 72
21 21 25 26 25 23 21 21 16 19 16 15 13 23 33 98 98 98 96 94 88 98 100 99 93 90 90 83 78 76 76 74 72 68 66 73 71 72 74 80 80 74 69 64 64 63 63 67 72
23 24 25 25 25 22 18 15 16 15 13 12 27 31 41 99 100 100 100 87 86 93 94 92 95 91 87 90 85 84 82 79 75 70 64 63 65 74 76 79 84 82 73 69 67 66 64 70 74
24 26 26 27 26 19 13 12 14 14 13 12 11 23 47 100 97 94 83 80 89 84 79 78 79 79 76 82 88 90 90 86 82 76 69 60 55 56 62 78 78 79 77 76 72 68 67 67 71
21 24 28 27 24 17 8 8 8 9 12 12 17 29 47 81 83 75 68 70 74 79 76 77 78 77 73 71 70 78 83 85 86 89 88 84 69 62 56 61 74 82 77 76 79 72 70 70 69
18 24 26 24 22 13 6 8 9 10 12 12 11 21 42 47 40 38 31 30 31 32 34 34 32 30 27 28 30 32 35 38 52 67 76 79 79 79 69 59 58 64 79 78 75 80 77 73 72
18 23 23 20 17 9 6 6 8 10 12 22 20 27 37 34 31 27 25 22 21 22 23 23 23 21 20 18 18 17 17 18 19 22 25 34 59 65 66 70 62 58 60 73 78 75 78 79 73
18 15 18 16 15 10 7 6 6 10 10 18 27 35 36 34 29 23 20 22 23 24 24 22 20 16 8 8 9 9 10 12 13 14 16 17 19 23 33 62 66 64 60 60 66 75 78 76 77
12 12 14 12 12 8 6 6 7 9 10 10 19 31 34 31 27 25 27 28 28 27 25 20 14 8 8 9 9 10 11 11 13 13 13 14 15 16 17 21 34 60 70 59 64 65 73 74 75
11 11 12 10 9 8 7 7 7 20 12 14 21 33 35 32 31 31 30 29 28 24 21 15 11 10 9 9 9 9 11 13 14 14 14 14 14 14 14 15 18 35 57 75 76 64 64 74 72
12 14 13 11 10 9 8 9 8 33 32 33 34 38 37 35 36 36 35 30 26 21 18 14 11 10 10 10 10 10 11 13 15 16 16 16 17 17 18 18 16 16 28 65 71 86 84 69 69
14 14 14 12 10 9 8 9 10 26 46 47 42 41 39 38 39 35 31 27 23 19 15 13 12 12 11 10 10 10 12 15 18 20 20 20 22 22 22 22 23 21 17 20 62 72 91 92 80
13 15 14 12 10 10 9 11 11 37 43 52 57 51 46 45 41 36 31 26 21 17 14 14 14 13 11 10 11 13 17 19 21 25 29 30 32 37 37 35 32 30 27 22 22 45 91 97 92
17 15 17 14 12 10 10 11 18 49 43 51 56 58 50 46 42 37 32 26 21 18 17 16 15 12 11 12 15 19 19 20 25 31 34 36 38 42 42 43 41 38 37 34 30 27 46 98 99
20 18 18 17 12 12 13 12 25 47 47 48 57 61 60 50 44 38 33 27 24 21 20 17 15 14 14 16 17 18 18 20 23 30 34 36 38 42 47 51 52 44 36 38 42 39 31 77 97
18 19 18 18 15 15 16 14 13 44 48 56 58 60 62 61 49 45 38 32 28 24 22 19 17 16 17 18 18 14 13 17 21 26 32 38 42 48 54 64 66 62 56 44 34 48 49 35 92
20 20 19 18 16 17 15 13 13 44 45 48 53 60 62 68 55 46 39 33 28 24 23 21 21 22 23 22 21 18 17 18 20 23 27 35 43 54 63 67 69 70 68 67 57 52 57 56 45
22 22 24 19 18 13 12 12 30 42 55 57 60 61 67 66 59 50 42 34 30 27 24 23 25 27 25 22 21 20 21 21 22 26 28 37 41 52 62 72 75 74 81 83 75 76 65 71 55
29 22 21 22 20 22 14 20 15 39 45 54 56 64 65 67 59 48 40 35 32 30 30 30 29 28 26 26 25 24 25 25 29 31 35 36 43 49 57 64 67 72 91 99 99 96 92 98 90
26 25 25 24 22 19 18 18 16 43 48 47 55 63 67 68 54 46 42 38 36 37 36 32 31 30 28 27 28 28 30 32 34 35 29 29 37 53 66 72 84 88 90 94 99 100 98 98 99
23 21 21 22 21 24 20 18 18 29 30 40 55 65 71 61 55 50 46 42 41 39 37 36 34 31 30 30 32 34 34 32 34 35 34 36 45 52 67 82 85 86 87 92 94 100 99 98 100
18 22 30 28 26 29 21 19 18 28 38 41 54 63 70 63 58 52 48 42 39 39 38 35 34 34 35 37 38 37 36 36 38 43 45 46 51 62 79 81 83 91 91 93 95 90 92 98 98
24 23 35 44 34 28 24 22 17 51 59 54 55 63 74 65 59 54 48 44 43 43 42 38 36 37 37 36 36 38 40 39 41 52 57 55 60 70 76 87 87 90 94 94 94 100 94 98 98
31 30 24 38 39 37 27 25 58 60 61 64 67 71 74 68 59 53 50 48 47 45 42 39 38 39 38 37 37 39 43 45 49 56 58 58 62 72 73 84 89 91 92 93 93 96 98 100 99
28 25 36 55 87 74 37 28 23 56 60 64 66 69 74 67 61 55 53 51 48 46 42 40 38 38 40 40 42 45 49 50 53 61 60 59 64 71 73 81 85 91 92 98 98 95 100 99 98
30 36 33 36 40 47 49 34 30 42 54 62 63 68 73 65 61 59 55 51 49 44 39 36 37 37 37 41 48 53 54 52 55 63 64 65 65 72 77 81 80 84 91 99 100 97 96 99 92
24 31 31 48 41 40 37 34 47 50 51 56 60 68 68 58 58 58 57 56 50 42 38 38 39 40 45 52 55 56 56 58 60 66 67 68 68 71 81 83 82 82 85 97 100 97 94 98 97

GFSSGP_850_rhum_162.txt.gz
RH
18 19 20 20 13 9 10 11 10 17 22 20 21 24 25 29 31 37 99 99 100 100 100 82 73 72 70 68 67 66 64 63 62 62 64 66 66 66 66 64 60 56 52 55 58 58 62 62 66
19 21 22 16 11 8 8 10 11 15 22 20 19 22 21 31 56 79 95 98 100 99 85 78 77 75 71 68 68 70 70 70 70 69 68 68 68 69 69 68 66 62 58 56 62 65 65 63 61
20 21 16 13 10 8 10 11 12 19 18 15 15 16 21 29 76 97 98 97 96 83 80 80 81 78 75 70 67 66 68 69 70 69 71 74 75 75 74 75 72 68 63 61 61 62 65 65 65
25 21 17 13 11 14 12 12 14 17 15 14 16 22 51 81 93 97 99 95 96 88 95 98 96 86 78 77 74 72 71 70 68 65 64 64 72 74 75 76 78 74 66 64 62 62 64 64 67
21 16 14 13 12 15 14 12 16 14 14 14 16 30 53 93 96 96 96 99 93 98 99 91 86 88 91 85 80 78 78 76 73 67 61 56 58 64 70 76 78 76 74 70 66 69 69 67 68
16 16 14 13 13 15 13 14 15 15 13 16 23 38 50 92 100 99 96 97 76 72 72 75 76 83 85 85 86 84 82 81 78 72 65 58 52 54 61 60 70 78 74 68 67 71 74 70 69
14 13 12 13 14 15 12 14 14 13 12 18 30 29 56 90 93 96 98 91 89 79 73 74 75 72 69 70 74 80 83 83 81 77 72 64 59 58 56 62 66 64 72 72 66 65 72 76 72
17 13 15 13 15 14 10 11 12 12 12 13 20 29 55 82 98 97 90 88 85 79 70 64 66 64 57 53 56 47 46 62 75 75 76 76 74 64 56 60 75 69 64 66 70 67 66 72 74
18 13 12 13 16 13 9 10 9 10 11 14 20 28 50 84 82 66 70 69 64 53 36 28 24 22 21 21 21 20 20 21 23 26 34 49 50 64 68 63 54 56 63 64 63 65 70 72 71
12 14 13 14 13 11 8 9 9 9 12 17 30 46 59 59 51 44 40 39 26 23 23 22 20 17 9 8 8 8 9 11 12 14 15 19 22 29 38 55 65 61 56 56 58 58 61 73 90
11 12 13 13 12 9 6 6 7 8 10 14 25 43 48 44 40 38 40 34 23 22 22 20 16 7 8 9 9 9 9 10 11 12 14 15 15 16 18 23 48 84 97 87 81 84 78 93 86
11 10 11 10 10 9 7 6 6 7 10 11 22 38 40 39 37 37 39 33 25 24 23 19 12 8 10 9 9 9 8 9 11 12 13 14 15 14 14 15 15 18 49 72 94 85 87 91 93
9 9 9 9 8 9 8 8 7 8 17 15 32 38 36 37 42 45 42 29 26 25 22 16 10 9 11 10 10 10 9 9 10 13 14 15 15 15 15 16 16 15 16 30 69 91 95 90 91
10 9 9 9 8 9 8 8 7 18 26 31 38 36 38 41 43 46 44 31 27 23 19 14 11 11 12 12 11 10 11 12 13 14 15 16 17 16 17 19 20 22 22 18 18 48 92 95 94
10 11 9 8 8 8 8 9 8 18 27 32 33 36 38 41 43 46 47 37 29 22 17 14 13 14 13 12 11 11 12 13 15 18 23 24 24 24 24 27 30 31 29 26 24 21 36 84 99
12 12 16 11 9 8 8 12 8 23 25 28 33 36 40 44 45 51 47 38 26 20 17 15 15 15 14 13 13 13 14 15 18 24 30 30 29 29 28 28 33 34 33 34 38 33 30 35 65
15 22 18 16 9 8 9 11 10 21 22 22 31 36 40 45 49 53 50 36 25 19 17 16 16 15 15 14 14 14 14 16 20 26 33 32 34 36 37 37 36 39 45 44 35 43 58 76 69
25 22 20 20 12 10 11 11 9 20 23 19 28 32 38 44 47 57 53 31 25 20 18 17 16 15 14 13 12 13 15 18 22 26 27 29 33 36 39 42 43 46 54 55 54 47 34 44 61
18 20 21 18 12 13 13 13 11 14 22 21 25 30 36 41 52 59 56 33 30 23 21 19 17 16 15 13 12 13 16 19 23 23 25 28 31 34 41 50 51 58 64 61 59 67 64 38 63
18 21 21 18 14 15 15 16 13 11 20 19 22 29 36 43 56 58 55 40 29 25 22 20 20 20 18 17 17 18 23 36 33 34 29 28 32 36 37 37 40 50 61 61 68 92 92 81 66
22 24 24 22 17 16 16 18 16 11 18 21 24 27 35 42 50 55 53 51 36 27 24 24 24 23 21 21 26 33 58 59 54 29 42 28 27 31 39 46 50 54 64 69 70 88 100 98 85
31 24 24 22 22 26 14 20 15 15 22 27 29 30 36 43 47 52 50 51 42 30 28 27 26 26 25 25 30 34 54 58 39 45 33 26 28 29 34 41 49 61 72 78 86 90 98 97 99
28 22 23 22 24 25 22 22 16 13 18 21 27 33 39 45 50 53 50 52 46 31 30 30 31 30 28 29 32 41 52 64 75 79 67 56 35 32 39 52 72 75 76 82 85 88 89 97 99
19 21 21 21 24 32 23 23 18 16 17 16 18 29 40 48 54 56 55 52 54 35 32 34 36 37 33 34 36 38 41 54 81 84 78 77 69 52 46 48 54 65 73 83 89 90 89 95 100
19 23 29 28 28 24 17 20 17 17 21 22 20 28 41 52 59 58 52 49 55 50 41 39 38 43 40 40 41 39 41 63 78 87 84 86 86 81 64 54 56 62 76 82 87 91 89 91 93
26 26 36 40 30 23 18 23 16 25 32 34 34 36 48 56 63 56 54 55 58 49 47 42 38 48 39 38 40 52 60 82 85 92 95 93 94 92 62 61 64 70 80 86 87 95 95 93 93
34 38 29 43 37 40 26 18 22 27 29 37 36 42 53 61 62 57 60 62 59 56 42 36 36 38 32 31 36 47 62 77 85 88 98 98 95 88 67 63 72 78 86 90 94 98 95 98 94
28 24 39 51 82 79 38 32 25 28 28 38 41 47 55 60 61 60 62 67 59 47 44 36 34 35 34 35 37 43 56 75 75 68 96 96 92 86 70 72 78 80 87 93 100 99 95 98 94
30 35 34 42 52 54 42 26 23 26 24 34 39 47 56 60 60 61 67 68 60 56 60 49 40 38 40 41 44 49 50 55 64 60 72 97 91 94 84 74 77 83 86 94 100 100 100 100 95
27 29 31 56 50 37 36 32 25 27 28 32 37 50 55 60 59 62 72 76 70 64 50 51 41 42 45 46 47 54 59 62 86 92 73 98 96 93 90 76 76 85 92 99 100 99 99 100 100

GFSSGP_850_rhum_165.txt.gz
RH
16 24 22 19 12 7 6 7 7 11 16 18 20 20 29 36 34 56 95 98 98 97 100 76 71 69 67 65 65 64 62 60 61 64 66 68 70 71 70 66 62 57 53 58 61 62 59 59 60
17 23 21 14 10 7 5 7 7 13 19 21 22 22 24 43 61 88 89 97 98 98 98 80 77 75 71 67 65 64 64 64 63 64 62 61 66 71 72 71 68 66 62 59 63 65 64 61 58
15 22 16 11 10 8 8 7 8 15 18 14 14 17 22 45 85 98 99 98 99 98 82 79 81 79 76 72 69 68 68 67 66 64 60 59 60 64 68 72 74 70 66 60 65 66 63 63 62
18 16 13 10 9 7 8 8 10 13 13 12 13 24 51 73 86 97 99 99 100 93 74 80 92 90 81 78 76 75 74 73 70 66 62 59 58 61 66 69 73 74 70 62 60 64 70 65 66
16 13 12 12 9 8 9 8 11 12 11 12 13 24 49 85 94 96 99 98 98 84 77 74 78 84 88 87 83 80 78 76 73 70 65 60 58 59 63 66 68 75 76 70 65 62 65 66 68
13 11 12 10 8 9 10 10 11 10 11 11 13 31 47 85 90 86 83 94 78 60 56 62 66 69 73 77 83 83 84 83 81 78 74 68 62 58 61 62 63 66 75 77 71 67 67 66 65
12 11 12 9 9 10 10 11 11 11 11 12 17 24 54 75 90 89 86 86 71 59 57 62 68 68 68 66 64 62 69 80 82 82 80 77 72 66 60 59 60 66 65 66 70 68 70 69 68
12 10 11 10 9 10 10 10 11 11 10 17 19 24 49 71 81 80 81 83 71 66 61 56 54 43 28 21 21 22 22 24 26 38 56 70 81 75 89 83 69 60 66 67 64 62 65 70 70
12 11 11 9 10 10 9 10 10 10 10 12 16 25 43 73 76 70 70 73 74 61 45 27 21 18 14 9 9 9 9 10 12 14 17 21 30 36 62 73 80 69 61 61 63 63 64 68 70
10 11 10 10 10 10 10 9 9 10 10 14 22 46 59 64 60 59 53 53 50 39 22 20 18 12 6 7 8 8 7 8 8 10 11 12 12 15 18 25 35 64 81 78 60 57 59 65 73
9 11 9 10 10 10 8 8 9 10 10 13 25 42 53 55 50 39 34 37 40 43 25 20 16 7 9 9 10 10 10 8 9 9 11 12 13 13 13 12 32 30 46 73 95 96 93 84 82
11 10 9 9 9 9 8 7 8 8 10 10 18 35 43 42 34 29 31 36 40 46 31 19 14 8 10 11 12 11 12 11 11 11 10 11 13 14 14 18 13 16 44 39 52 74 80 80 79
12 12 10 9 9 9 9 8 7 7 10 9 21 30 31 31 30 29 31 36 41 47 32 19 13 9 10 12 13 11 10 15 12 23 16 15 18 19 18 19 22 31 47 54 54 50 36 68 81
12 10 10 10 9 9 9 9 9 8 12 14 24 25 26 27 29 37 38 41 42 47 27 18 13 10 12 13 13 11 11 12 26 48 24 21 23 22 26 36 51 67 64 52 27 27 23 16 34
12 13 12 11 10 9 8 9 9 8 13 18 22 23 23 27 32 36 36 38 40 45 26 17 13 12 13 13 13 12 12 12 29 42 41 21 22 24 27 50 64 76 48 47 68 69 71 65 58
17 16 17 12 10 9 9 13 9 9 14 17 20 21 23 27 30 34 38 38 40 44 31 16 14 14 14 13 12 11 11 14 24 24 37 21 21 22 28 49 71 59 47 81 83 77 75 76 71
18 21 16 14 10 10 10 12 9 11 13 13 18 20 23 27 30 36 40 38 40 43 32 18 14 14 14 13 12 13 25 49 51 58 67 23 24 27 34 76 86 54 79 85 86 89 75 62 58
18 18 16 16 12 11 12 12 10 12 13 12 15 19 23 26 31 38 41 42 42 42 23 18 18 15 14 14 22 49 53 55 59 64 66 32 49 38 39 80 90 85 86 89 87 82 82 76 75
17 18 18 14 12 14 14 14 12 10 12 14 13 19 22 26 31 40 44 46 44 46 44 22 23 17 18 38 37 47 45 40 53 61 44 44 38 49 68 92 85 91 79 61 72 76 80 74 74
19 22 20 15 12 15 16 16 13 12 11 13 14 15 20 26 31 45 49 49 48 54 49 46 38 25 26 34 28 24 31 49 56 63 54 69 40 46 72 64 77 87 61 61 88 74 87 93 93
24 24 23 22 18 17 18 19 16 13 12 11 14 14 17 24 32 45 48 49 51 52 56 51 46 36 21 17 49 51 50 48 49 62 66 75 83 82 76 86 68 55 57 65 72 90 100 99 98
25 18 20 22 26 28 16 22 13 10 12 11 14 15 16 22 31 41 45 47 50 56 58 56 39 42 29 20 44 36 56 53 61 62 68 77 80 84 86 86 85 60 62 61 66 79 92 100 98
18 15 21 23 24 22 19 21 16 11 13 14 15 17 20 24 32 38 43 44 48 58 62 60 54 50 36 27 28 42 55 63 64 68 75 73 76 80 87 93 94 91 72 71 85 80 86 98 100
18 23 22 22 22 29 20 20 16 13 13 13 14 19 22 26 34 40 44 45 50 66 65 65 58 59 50 44 51 46 45 69 73 72 74 71 76 77 83 94 89 85 73 69 81 92 86 92 99
21 25 29 28 29 27 13 14 12 14 14 15 14 17 24 32 40 46 47 47 46 57 64 60 60 59 64 65 66 62 73 77 73 74 73 83 78 81 86 96 91 56 56 62 71 90 96 98 100
23 23 32 32 28 22 14 20 14 15 17 21 23 17 27 36 47 50 48 44 52 59 63 65 62 59 65 72 74 77 80 76 77 81 88 87 86 89 95 97 96 78 72 77 78 86 97 99 98
31 32 24 39 33 41 29 21 13 16 18 21 22 25 31 41 49 52 47 49 52 56 69 70 65 61 67 73 77 78 83 88 90 94 96 93 94 93 94 100 97 88 74 82 96 99 99 99 99
30 26 59 61 72 61 31 24 21 19 20 21 25 29 39 44 51 51 51 55 53 56 68 72 67 66 71 75 78 83 90 92 95 96 97 98 100 100 100 100 98 90 87 88 97 100 100 99 100
32 37 32 35 62 48 43 28 19 23 20 25 25 32 41 48 52 52 54 58 57 59 62 68 70 70 72 78 74 85 90 86 91 97 97 98 98 100 100 100 97 95 96 99 100 100 100 100 99
23 40 38 56 54 46 42 37 17 22 21 23 26 34 42 49 52 53 58 64 62 61 60 65 72 75 73 74 79 91 96 95 98 98 87 81 98 100 100 99 99 98 99 98 100 100 99 100 100

GFSSGP_850_rhum_171.txt.gz
RH
13 13 22 26 31 32 30 19 11 16 26 47 55 69 84 71 60 87 100 92 80 68 68 64 64 64 63 61 59 58 58 57 55 54 55 57 61 62 61 62 60 60 58 55 54 54 58 60 60
12 17 21 21 31 34 28 16 27 27 23 44 54 64 72 88 95 99 100 98 89 64 68 67 68 69 68 66 64 62 62 63 61 58 57 56 57 60 61 61 61 61 63 63 58 55 59 61 61
16 18 22 31 33 29 23 22 25 20 15 17 24 42 64 91 86 97 97 86 82 74 66 62 67 66 69 70 68 66 65 64 62 61 60 58 57 56 57 60 62 64 62 66 65 58 59 63 65
13 18 19 25 23 17 15 19 20 17 13 18 28 60 76 93 84 85 86 87 75 58 51 52 48 50 71 78 76 74 72 71 69 67 65 63 61 57 57 57 61 65 67 68 70 68 64 59 61
11 14 26 26 23 16 12 14 12 14 13 22 23 61 88 93 86 88 91 82 58 44 31 23 27 48 64 76 79 81 80 81 80 78 77 74 70 64 59 57 60 66 67 70 73 72 69 61 60
11 14 27 26 20 13 11 9 11 12 11 34 48 62 89 92 91 95 92 81 56 33 27 23 37 51 57 60 63 65 71 80 78 82 82 81 80 77 74 70 59 57 59 64 67 71 70 70 63
13 20 23 22 16 14 12 9 10 12 12 20 34 67 92 92 92 95 93 75 50 37 26 28 42 50 52 38 36 32 24 24 23 31 40 56 70 73 78 76 75 74 68 62 64 69 70 68 66
9 19 19 18 16 16 11 10 10 10 14 27 33 70 90 88 86 89 86 68 57 43 29 25 31 27 17 14 10 9 8 8 7 8 11 16 20 40 45 53 54 59 67 79 72 66 61 60 64
9 19 23 18 15 15 10 12 10 11 21 46 40 42 38 76 84 82 77 69 58 42 25 20 18 13 6 8 9 10 9 8 7 7 8 10 11 13 16 21 25 31 39 57 76 83 99 97 68
13 21 19 13 11 13 11 11 10 11 18 61 60 58 60 68 81 78 74 65 60 38 24 17 15 8 9 11 12 12 12 10 8 7 6 8 9 9 12 16 15 20 35 38 41 60 75 96 100
16 17 13 12 10 10 10 10 9 10 13 34 57 61 64 77 76 75 70 60 54 37 18 17 14 7 10 12 13 13 12 11 10 10 8 9 9 9 11 14 16 18 23 21 20 34 57 55 81
23 17 14 10 11 10 10 9 10 10 10 12 19 42 70 71 72 64 61 54 42 29 19 18 15 8 10 12 12 14 14 12 12 11 10 9 10 11 12 14 18 26 28 22 27 27 26 25 30
20 20 16 14 12 11 9 10 11 10 13 26 36 47 59 64 60 57 51 44 40 34 24 21 16 9 9 11 14 14 15 13 15 14 11 9 8 10 12 16 20 21 23 33 29 27 23 24 23
20 18 16 14 13 13 14 12 10 9 26 38 44 54 55 56 53 49 38 38 38 36 27 24 19 13 10 13 14 14 15 14 14 13 11 11 8 8 11 17 25 25 35 34 40 39 24 20 22
23 28 22 17 14 16 14 18 14 10 22 35 42 48 50 49 46 32 32 36 38 40 33 29 23 15 12 14 14 14 15 14 14 14 12 12 10 9 13 19 26 27 35 34 33 36 35 32 30
29 30 36 23 19 17 17 22 16 10 10 29 36 39 42 40 31 30 32 35 38 39 34 30 24 18 14 15 14 15 15 16 20 14 14 11 10 11 12 14 17 23 26 28 33 35 27 26 27
37 42 34 29 21 19 19 20 14 10 10 18 28 28 30 29 28 30 33 36 39 40 38 40 31 20 16 16 16 20 21 24 20 18 18 13 13 14 14 14 16 17 18 22 26 27 27 30 29
44 39 29 29 20 14 14 16 14 10 10 12 22 23 23 25 29 31 36 37 39 42 44 42 35 23 18 18 20 30 38 36 25 24 21 19 18 17 16 17 17 18 18 18 20 21 22 26 36
32 32 30 25 19 19 20 19 16 12 12 17 20 20 20 23 30 32 35 36 37 39 40 42 38 32 31 34 29 32 31 32 40 46 31 22 26 21 22 17 16 16 16 20 24 24 24 24 41
24 27 29 24 19 20 24 21 18 16 14 14 17 20 19 24 31 34 36 37 37 37 37 44 50 41 36 33 27 24 30 51 55 57 46 42 30 32 28 23 22 20 19 20 23 34 34 34 64
27 24 27 30 24 24 26 28 24 18 14 13 13 13 18 24 34 35 38 38 39 38 40 48 53 42 39 33 36 38 46 56 60 50 41 42 45 50 44 31 33 30 28 26 26 39 60 77 63
30 20 22 24 27 34 23 37 27 23 21 18 13 14 16 24 34 35 39 42 43 42 48 46 50 47 41 37 38 30 38 43 47 51 55 52 60 59 58 54 49 43 38 33 33 39 65 98 97
23 21 21 25 26 29 26 37 28 20 20 16 16 14 14 26 35 39 43 46 48 48 50 47 48 43 46 36 32 31 36 38 48 47 48 57 58 59 58 55 46 40 41 41 43 50 72 100 99
21 23 26 24 32 45 29 34 28 22 18 14 12 14 22 36 43 43 47 49 52 53 52 48 50 50 48 43 38 32 35 35 37 39 40 45 46 60 61 53 51 53 53 49 64 74 94 100 99
22 30 54 53 54 48 28 33 28 20 18 19 25 40 43 45 46 46 49 51 54 53 48 49 57 57 52 48 48 41 35 39 30 32 32 31 35 49 59 66 67 68 67 71 76 82 95 100 100
30 32 63 58 52 42 28 35 23 20 21 18 26 42 47 49 46 47 48 51 52 50 49 54 60 58 58 54 49 40 31 35 28 28 27 32 39 47 58 63 66 63 66 79 93 99 100 100 99
30 36 27 42 38 54 43 29 20 17 25 23 36 47 51 49 48 47 47 48 51 53 53 54 60 60 60 49 48 44 37 37 34 33 30 38 44 48 51 58 61 69 81 92 98 99 100 100 100
36 27 41 85 90 75 51 45 37 41 38 33 45 50 51 48 44 45 46 48 54 56 57 63 60 61 58 48 48 44 36 39 39 40 42 45 48 52 59 68 89 100 100 100 100 100 100 100 99
53 54 71 81 98 93 80 57 37 42 40 39 48 52 53 49 47 48 48 49 53 57 59 63 63 61 54 48 45 48 47 47 42 40 48 49 52 70 87 99 100 100 100 100 100 100 100 97 77
60 69 90 99 99 99 79 64 36 53 51 42 47 50 47 50 50 49 49 52 55 60 64 62 63 64 56 53 56 58 52 48 46 53 58 58 90 100 100 100 99 100 100 100 100 100 100 84 69